Powrót do katalogu

SL-12 R/B(2)

AktywnyGEO
NORAD 11569·ROCKET BODY·🇷🇺 Russia

Wystrzelony Oct 26, 1976 z Baikonur Cosmodrome

Loading…

TLE

ŚwieżeSource: Space-Track

Epoka: Sep 14, 2026, 13:32 UTC

1 11569U 76107F   26257.56400961 -.00000123  00000-0  00000-0 0  9993
2 11569   2.5377 259.1743 0010205 215.4459 315.7110  1.01460850186409

Śledź SL-12 R/B(2) w czasie rzeczywistym z AllMySat

Download on the App Store